Погода в Тайпаке

Погода в Тайпаке : погода сейчас, прогноз погоды и архив. Всё, что Вы хотите узнать о погоде в Тайпаке!

Хотите узнать прогноз погоды в Тайпаке? Тогда Вам сюда: Погода в Тайпаке

Поиск расширенной информации на нашем сайте:

Другие новости

Новости СМИ2

Главная страница сайта

Новости сайта

02.10.2013

Напоминаем, что на нашем новом сайте вы можете получить высокодетализированные прогнозы погоды по пунктам России, СНГ и мира (включающие важные для авиации метеовеличины, такие как направление и скорость ветра, видимость, явления погоды, количество и форма облачности, нижняя и верхняя граница облачности), а также ознакомиться с разнообразными материалами по авиационной метеорологии и подборкой полезных ссылок на эту тему.

Сайт Метеоцентр.Азия посвящён разработке технологий оптимизации авиаметеорологического обслуживания, включая проектирование и перспективное создание нескольких автоматизированных авиаметеорологических систем:
- система выпуска высокодетальных прогностических карт явлений погоды для нижнего воздушного пространства по России и ближнему зарубежью;
- система верификации прогнозов TAF (выпускаемых синоптиками официальных АМСГ РФ и ближнего зарубежья) и AUTOTAF (выпускаемых сайтом Метеоцентр.Азия) - выявление ошибок, онлайн-сопоставление с фактической погодой METAR, автоматическое внесение коррективов в прогнозы при резком отклонении фактической погоды от прогноза, подсчёт оправдываемости прогнозов по элементам и в целом;
- система обработки, анализа и отображения авиаметеорологической информации для применения провайдерами метеорологической информации.


Погода в Тайпаке - сегодня

Время (UTC), дата Ветер
(°,м/с) 
Видим.   Явления Облачность Т
(°С)
Тd
(°С)
f(%) Тe
(°С)
Pmin
(гПа)
dP
(гПа)
Po
(мм)
O2
(г/м3)
Тmin Tmax R s Состояние
почвы
00 22.03.17 090 (В) н/о  {дождь} [диам. гололёда 1 мм]  10/10 600 м 
[Sc]
-0.2 -2 88 -3  1009.4  0.1  757  305           
03 22.03.17 090 (В) 10 км    10/10 600 м 
[Sc]
+1 -0.7 88 -1  1010.5  1.1  758  304      0.8     
06 22.03.17 140 (ЮВ) 10 км  {дождь}  10/10 600 м 
[Sc]
+3.9 +1.6 85 +2  1013.1  2.6  760  302  -0.6    0.8     
09 22.03.17 090 (В) 10 км  {дождь}  10/10 600 м 
[Sc]
+4 +1.7 85 +2  1014.6  1.5  761  302           
12 22.03.17 тихо ()   10 км  {дождь}  10/10 600 м 
[Sc]
+4.3 +0.4 76 +4  1016.3  1.7  762  302           
15 22.03.17 тихо ()   10 км    10/10 600 м 
[Sc]
+4.2 +0.5 77 +4  1017.3  763  303    +5.2  0.0     
18 22.03.17 тихо ()   н/о    10/10 600 м 
[Sc]
+4 +1.7 85 +4  1019.8  2.5  765  303    +5.2  0.0     
21 22.03.17 тихо ()   н/о    10/10 600 м 
[Sc]
+3.3 +1.2 86 +3  1021.3  1.5  766  305           
00 23.03.17 090 (В) н/о    10/10 600 м 
[Sc]
+2.9 +1.1 88 +2  1022.6  1.3  767  306           
03 23.03.17 тихо ()   10 км    10/10 600 м 
[Sc]
+3.2 +1.1 86 +3  1023.9  1.3  768  306           
06 23.03.17 тихо ()   10 км    10/10 600 м 
[Sc]
+3.9 +0.8 80 +4  1024.8  0.9  768  305  +2.7         
09 23.03.17 240 (ЮЗ) 10 км    10/10 600 м 
[Sc]
+8.5 +1.5 61 +9  1025  0.2  769  300           
12 23.03.17 230 (ЮЗ) 10 км    10/10 600 м 
[Sc]
+10 +1.1 54 +10  1024.5  -0.5  768  298           
15 23.03.17 270 (З) 10 км    10/10 600 м 
[Sc]
+9 +1.3 58 +9  1024.6  0.1  768  300    +11       
18 23.03.17 270 (З) н/о    10/10 600 м 
[Sc]
+6.2 +2.3 76 +6  1025.5  0.9  769  303    +11       
21 23.03.17 270 (З) н/о    ясно 
+2.8 -0.2 81 +2  1025.4  -0.1  769  307           
00 24.03.17 270 (З) н/о    ясно 
+0.3 -2.1 84 1025.2  -0.2  769  310           
03 24.03.17 тихо ()   0200 м  туман  ?/?  
-0.2 -0.8 96 -0  1025.2  769  310           
06 24.03.17 тихо ()   10 км  {туман}  9/9 600 м 
[Sc]
+5.3 +1.1 74 +5  1026  0.8  769  304  -0.4         
09 24.03.17 270 (З) 10 км    9/9 600 м 
[Sc]
+9.2 -0.7 50 +9  1025.4  -0.6  769  300           
12 24.03.17 290 (З) 10 км    9/9 600 м 
[Sc]
+7.4 +0.2 60 +7  1025  -0.4  769  302           
15 24.03.17 290 (З) 10 км    10/10 600 м 
[Sc]
+6.3 -0.5 62 +6  1025.1  0.1  769  303    +10.2       
18 24.03.17 тихо ()   н/о    10/10 600 м 
[Sc]
+3.7 +0.3 78 +4  1025.2  0.1  769  306    +10.2       
21 24.03.17 тихо ()   н/о    ясно 
+2.2 -0.3 84 +2  1024.3  -0.9  768  307           
00 25.03.17 290 (З) н/о    ясно 
+0.4 -1.3 88 1022.3  -2  767  309           
Время (UTC), дата Ветер
(°,м/с) 
Видим.   Явления Облачность Т
(°С)
Тd
(°С)
f(%) Тe
(°С)
Pmin
(гПа)
dP
(гПа)
Po
(мм)
O2
(г/м3)
Тmin Tmax R s Состояние
почвы

Для получения пояснительной информации подведите курсор к названию столбца.

ПОГОДА в Тайпаке - архив

Всё, что Вы хотите узнать о погоде в Тайпаке - удобно и подробно!

Выберите нужную дату (начиная с 1 января 2015* года) и нажмите кнопку "Найти".
Будут отображены архивные сводки погоды по пункту Тайпак, начиная с указанной даты.


Отображать данные в формате CSV (для использования в таблицах Excel)


Внимание! Наш архив погоды предназначен исключительно для личного некоммерческого использования в познавательных целях. Если Вам необходимы официальные справки о состоянии погоды (для производственных, юридических, коммерческих и т.п. целей), обращайтесь в органы Росгидромета.

*Примечание: данная дата относится к архиву по метеостанциям СССР (Россия, СНГ, Балтия).
Архив по метеостанциям Зарубежной Европы и Азии (кроме Китая) хранится 10 дней, по другим регионам земного шара (Китай, Африка, Америка, Австралия, Океания) - 1 день.

Тайпак - район местоположения метеостанции


Название, широта, долгота, высота метеостанции:
Тайпак (Калмыково) 49.1°ш. 51.9°д. 2 м над ур. моря [Казахстан]

Дополнительная информация

В oтличие oт бoльшинства пoгoдных сайтoв мы публикуем пoдрoбную метеoинфoрмацию в детальнoм прoфессиoнальнoм фoрмате.

Характеристики температуры и влажнoсти вoздуха измеряются на высoте 2 м в тени вдали oт зданий и деревьев.
Скoрoсть ветра измеряется на высoте 10 м (на урoвне рoста челoвека скoрoсть ветра ниже в 1.5-2 раза). Если метеoстанция нахoдится в гoрoде или в лесу, тo скoрoсть ветра занижена на 2-4 м/с пo сравнению с oткрытым местoм. Скoрoсть ветра над акватoриями крупных рек и oзёр, а также на вершинах хoлмoв на 2-5 м/с выше, чем в oбычных услoвиях.
Атмoсфернoе давление в разных тoчках местнoсти мoжет значительнo oтличаться oт давления на метеoстанции, в зависимoсти oт услoвий рельефа (при пoдъёме на 10 м давление пoнижается примернo на 1 мм рт.ст.).